DW7259 Weather Reports


Display with metric or nautical units.
time (UTC)temp
F
wind
direction
speed
MPH
gust
MPH
rain 1hr
in
rain 24hr
in
rain mn
in
humidity
%
barometer
mb
20260906083051 53 186 4.0 8.0 0.00 0.00 0.00 57 1007.7
20260906081550 53 360 1.0 6.0 0.00 0.00 0.00 60 1007.6
20260906080047 53 360 3.0 7.0 0.00 0.00 0.00 60 1007.6
20260906074546 53 360 1.0 9.0 0.00 0.00 0.00 59 1007.6
20260906073042 53 360 0.0 8.0 0.00 0.00 0.00 59 1007.7
20260906071542 54 149 0.0 4.0 0.00 0.00 0.00 58 1007.6
20260906070037 53 360 0.0 9.0 0.00 0.00 0.00 60 1007.4
20260906064537 54 360 0.0 7.0 0.00 0.00 0.00 59 1007.4
20260906063036 54 360 0.0 0.0 0.00 0.00 0.00 58 1007.4
20260906061536 55 360 1.0 6.0 0.00 0.00 0.00 57 1007.5
20260906060036 55 360 4.0 9.0 0.00 0.00 0.00 57 1007.5
20260906054535 56 360 2.0 6.0 0.00 0.00 0.00 57 1007.5
20260906053021 56 360 0.0 1.0 0.00 0.00 0.00 56 1007.5
20260906051523 56 127 0.0 0.0 0.00 0.00 0.00 59 1007.5
20260906050023 57 127 0.0 1.0 0.00 0.00 0.00 58 1007.5
20260906044521 57 127 0.0 4.0 0.00 0.00 0.00 56 1007.5
20260906043019 58 127 0.0 0.0 0.00 0.00 0.00 55 1007.4
20260906041523 59 127 0.0 5.0 0.00 0.00 0.00 55 1007.4
20260906040019 59 127 1.0 4.0 0.00 0.00 0.00 54 1007.1
20260906034518 59 151 0.0 4.0 0.00 0.00 0.00 54 1006.9
20260906033017 60 150 0.0 3.0 0.00 0.00 0.00 54 1006.8
20260906031516 60 150 0.0 5.0 0.00 0.00 0.00 53 1006.7
20260906030016 60 210 2.0 7.0 0.00 0.00 0.00 52 1006.3
20260906024516 61 123 0.0 8.0 0.00 0.00 0.00 52 1006.1
20260906023020 62 119 0.0 4.0 0.00 0.00 0.00 50 1005.8
20260906021516 62 115 0.0 3.0 0.00 0.00 0.00 49 1005.8
20260906020014 63 141 2.0 9.0 0.00 0.00 0.00 47 1005.9
20260906014519 65 136 3.0 15.0 0.00 0.00 0.00 45 1005.8
20260906013015 67 151 0.0 11.0 0.00 0.00 0.00 41 1006.1
20260906011515 68 88 0.0 5.0 0.00 0.00 0.00 38 1006.3
20260906010011 69 42 2.0 12.0 0.00 0.00 0.00 29 1006.2
20260906004511 69 32 4.0 13.0 0.00 0.00 0.00 30 1006.1
20260906003010 70 18 7.0 17.0 0.00 0.00 0.00 28 1006.0
20260906001508 70 51 5.0 15.0 0.00 0.00 0.00 28 1006.0
20260906000009 71 47 6.0 15.0 0.00 0.00 0.00 26 1006.0
20260905234508 74 360 9.0 22.0 0.00 0.00 0.00 23 1006.0
20260905233013 74 360 11.0 21.0 0.00 0.00 0.00 23 1006.0
20260905231506 74 360 8.0 18.0 0.00 0.00 0.00 23 1006.1
20260905230007 74 360 12.0 20.0 0.00 0.00 0.00 24 1006.3
20260905224504 74 360 10.0 23.0 0.00 0.00 0.00 24 1006.5
20260905223004 74 360 15.0 23.0 0.00 0.00 0.00 23 1006.6
20260905221501 74 360 8.0 22.0 0.00 0.00 0.00 25 1006.6
20260905220100 75 360 17.0 28.0 0.00 0.00 0.00 23 1006.6
20260905214559 75 360 12.0 22.0 0.00 0.00 0.00 22 1006.5
20260905213056 75 360 12.0 22.0 0.00 0.00 0.00 24 1006.8
20260905211558 75 360 7.0 17.0 0.00 0.00 0.00 26 1007.0
20260905210052 75 360 11.0 22.0 0.00 0.00 0.00 24 1007.2
20260905204551 75 360 9.0 18.0 0.00 0.00 0.00 26 1007.2
20260905203055 74 360 6.0 18.0 0.00 0.00 0.00 27 1007.6
20260905201553 75 360 7.0 19.0 0.00 0.00 0.00 29 1007.6
20260905200044 73 360 8.0 20.0 0.00 0.00 0.00 30 1007.7
20260905194542 70 360 2.0 11.0 0.00 0.00 0.00 37 1007.9
20260905193053 70 360 2.0 5.0 0.00 0.00 0.00 37 1008.1
20260905191541 69 360 2.0 6.0 0.00 0.00 0.00 39 1008.5
20260905190035 69 84 1.0 7.0 0.00 0.00 0.00 39 1008.7
20260905184534 69 360 2.0 7.0 0.00 0.00 0.00 40 1009.0
20260905183030 68 360 1.0 6.0 0.00 0.00 0.00 42 1009.0
20260905181526 66 61 0.0 0.0 0.00 0.00 0.00 45 1009.3
20260905180025 62 360 0.0 6.0 0.00 0.00 0.00 48 1009.2
20260905174522 63 360 2.0 6.0 0.00 0.00 0.00 47 1009.3
20260905173021 64 360 4.0 7.0 0.00 0.00 0.00 46 1009.6
20260905171530 63 360 0.0 6.0 0.00 0.00 0.00 48 1009.8
20260905170014 63 51 0.0 5.0 0.00 0.00 0.00 50 1009.6
20260905164518 60 360 0.0 2.0 0.00 0.01 0.00 56 1009.9
20260905163007 58 71 0.0 0.0 0.00 0.01 0.00 56 1010.0
20260905161507 58 360 0.0 3.0 0.00 0.01 0.00 58 1010.1
20260905160013 58 360 3.0 5.0 0.00 0.01 0.00 56 1010.1
20260905154504 58 90 0.0 0.0 0.00 0.01 0.00 58 1010.0
20260905153100 56 360 0.0 3.0 0.00 0.01 0.00 61 1010.0
20260905151556 56 360 0.0 0.0 0.00 0.01 0.00 61 1010.0
20260905150056 54 360 0.0 4.0 0.00 0.01 0.00 64 1009.9
20260905144548 53 360 0.0 0.0 0.00 0.01 0.00 68 1009.9
20260905143043 50 173 0.0 0.0 0.00 0.01 0.00 75 1009.8
20260905141539 48 360 0.0 0.0 0.00 0.01 0.00 76 1009.6
20260905140036 47 360 0.0 0.0 0.00 0.01 0.00 77 1009.4
20260905134542 46 360 0.0 0.0 0.00 0.01 0.00 75 1009.2
20260905133028 46 360 0.0 0.0 0.00 0.01 0.00 75 1008.9
20260905131528 46 360 0.0 0.0 0.00 0.01 0.00 75 1008.9
20260905130026 45 134 0.0 0.0 0.00 0.01 0.00 80 1008.7
20260905124526 45 134 0.0 0.0 0.00 0.01 0.00 80 1008.8
20260905123024 45 134 0.0 0.0 0.00 0.01 0.00 80 1008.7
20260905121523 45 134 0.0 0.0 0.00 0.01 0.00 79 1008.7
20260905120025 45 134 0.0 0.0 0.00 0.01 0.00 78 1008.6
20260905114522 45 134 0.0 0.0 0.00 0.01 0.00 78 1008.6
20260905113020 45 134 0.0 0.0 0.00 0.01 0.00 77 1008.5
20260905111519 46 134 0.0 0.0 0.00 0.01 0.00 78 1008.6
20260905110019 46 134 0.0 1.0 0.00 0.01 0.00 77 1008.5
20260905104515 46 134 0.0 0.0 0.00 0.01 0.00 77 1008.4
20260905103013 46 134 0.0 0.0 0.00 0.01 0.00 76 1008.3
20260905101512 47 134 0.0 0.0 0.00 0.01 0.00 75 1008.4
20260905100009 47 134 0.0 0.0 0.00 0.01 0.00 74 1008.1
20260905094507 47 134 0.0 3.0 0.00 0.01 0.00 73 1008.1
20260905093005 48 134 0.0 0.0 0.00 0.01 0.00 73 1008.0
20260905091503 48 134 0.0 1.0 0.00 0.01 0.00 72 1007.8
20260905090005 48 134 0.0 3.0 0.00 0.01 0.00 71 1007.9
20260905084600 48 134 0.0 3.0 0.00 0.01 0.00 70 1007.9